WetterOnline ( https://www.wetteronline.de )

Wetter aktuell Boizenburg

Aktuelles Wetter: Boizenburg (46m)

6-stündlich | Neueste Meldungen
Ortszeit Temperatur Wetter
So, 29.11. 7:00 2.2° C bedeckt
So, 29.11. 1:00 1.8° C bewölkt
Sa, 28.11. 19:00 2.7° C bedeckt
Sa, 28.11. 13:00 1.9° C bedeckt
Sa, 28.11. 7:00 -0.1° C Nebel
Sa, 28.11. 1:00 0.3° C Nebel
Fr, 27.11. 19:00 1.1° C Nebel
Fr, 27.11. 13:00 4.1° C Nebel
Ortszeit Temperatur Wetter
So, 29.11. 11:30 3.8° C Sprühregen
So, 29.11. 11:20 3.8° C Sprühregen
So, 29.11. 11:10 3.7° C Sprühregen
So, 29.11. 11:00 3.6° C Sprühregen
So, 29.11. 10:50 3.6° C Sprühregen
So, 29.11. 10:40 3.6° C Sprühregen
So, 29.11. 10:30 3.6° C Sprühregen
So, 29.11. 10:00 3.2° C bedeckt
Ortszeit Relative Feuchte Sichtweite
So, 29.11. 7:00 94% 30 km
So, 29.11. 1:00 87% >70 km
Sa, 28.11. 19:00 87% 50 km
Sa, 28.11. 13:00 96% 30 km
Sa, 28.11. 7:00 100% 0.3 km
Sa, 28.11. 1:00 100% 0.2 km
Fr, 27.11. 19:00 100% 100 m
Fr, 27.11. 13:00 97% 0.6 km
Ortszeit Relative Feuchte Sichtweite
So, 29.11. 11:30 95% 23 km
So, 29.11. 11:20 95% -
So, 29.11. 11:10 94% -
So, 29.11. 11:00 94% 19 km
So, 29.11. 10:50 94% -
So, 29.11. 10:40 94% -
So, 29.11. 10:30 94% 22 km
So, 29.11. 10:00 97% 15 km
Ortszeit Niederschlagsmenge Niederschlagsart
So, 29.11. 7:00 0.1 l/m2 in 12 Std. Sprühregen
So, 29.11. 1:00 0.0 l/m2 in 6 Std. -
Sa, 28.11. 19:00 0.0 l/m2 in 12 Std. -
Sa, 28.11. 13:00 0.0 l/m2 in 6 Std. -
Sa, 28.11. 7:00 0.0 l/m2 in 12 Std. -
Sa, 28.11. 1:00 0.0 l/m2 in 6 Std. -
Fr, 27.11. 19:00 0.0 l/m2 in 12 Std. -
Fr, 27.11. 13:00 0.0 l/m2 in 6 Std. -
Ortszeit Niederschlagsmenge Niederschlagsart
So, 29.11. 11:30 0.1 l/m2 in 1 Std. -
So, 29.11. 11:20 keine Meldung -
So, 29.11. 11:10 keine Meldung -
So, 29.11. 11:00 0.1 l/m2 in 1 Std. Sprühregen
So, 29.11. 10:50 keine Meldung -
So, 29.11. 10:40 keine Meldung -
So, 29.11. 10:30 0.1 l/m2 in 1 Std. -
So, 29.11. 10:00 0.0 l/m2 in 1 Std. -
Ortszeit Stärke Spitze Richtung
km/h Bft. km/h Grad Sektor
So, 29.11. 7:00 4 1 14 310° NW
So, 29.11. 1:00 6 1 17 340° N
Sa, 28.11. 19:00 4 1 29 90° O
Sa, 28.11. 13:00 13 3 26 120° SO
Sa, 28.11. 7:00 9 2 17 110° O
Sa, 28.11. 1:00 11 2 18 110° O
Fr, 27.11. 19:00 7 2 14 120° SO
Fr, 27.11. 13:00 4 1 11 130° SO
Ortszeit Stärke Spitze Richtung
km/h Bft. km/h Grad Sektor
So, 29.11. 11:30 6 1 17 40° NO
So, 29.11. 11:20 6 1 - 40° NO
So, 29.11. 11:10 7 2 - 20° N
So, 29.11. 11:00 7 2 15 30° NO
So, 29.11. 10:50 7 2 - 30° NO
So, 29.11. 10:40 7 2 - 30° NO
So, 29.11. 10:30 7 2 14 20° N
So, 29.11. 10:00 7 2 14 340° N
Ortszeit Untergrenze Bedeckung Gattung
total tief tief mittel hoch
So, 29.11. 7:00 900 m 8/8 8/8 - - -
So, 29.11. 1:00 960 m 7/8 7/8 - - -
Sa, 28.11. 19:00 570 m 8/8 8/8 - - -
Sa, 28.11. 13:00 180 m 8/8 8/8 - - -
Sa, 28.11. 7:00 <30 m 8/8 0/8 - - -
Sa, 28.11. 1:00 <30 m 8/8 0/8 - - -
Fr, 27.11. 19:00 <30 m 8/8 0/8 - - -
Fr, 27.11. 13:00 <30 m 7/8 0/8 - - -
Ortszeit Bedeckungsgrad in Achtel und Wolkenuntergrenze
So, 29.11. 11:30 5(150m) 8(660m)
So, 29.11. 11:20 5(150m) 8(660m)
So, 29.11. 11:10 4(150m) 8(660m)
So, 29.11. 11:00 3(570m) 8(780m) 8(750m)
So, 29.11. 10:50 3(570m) 8(780m)
So, 29.11. 10:40 2(570m) 7(810m) 8(960m)
So, 29.11. 10:30 3(120m) 7(960m) 8(1110m)
So, 29.11. 10:00 8(120m) 8(1050m)
Ortszeit Luftdruck NN (hPa) Tendenz (hPa in 3 Std.)
So, 29.11. 7:00 1028 + 0,2
So, 29.11. 1:00 1028 0,0
Sa, 28.11. 19:00 1027 + 0,9
Sa, 28.11. 13:00 1026 + 0,5
Sa, 28.11. 7:00 1024 + 0,5
Sa, 28.11. 1:00 1024 + 0,3
Fr, 27.11. 19:00 1023 + 0,6
Fr, 27.11. 13:00 1022 - 0,1
Ortszeit Luftdruck NN (hPa) Tendenz (hPa in 3 Std.)
So, 29.11. 11:30 1028 + 0,2
So, 29.11. 11:20 1028 keine Meldung
So, 29.11. 11:10 1028 keine Meldung
So, 29.11. 11:00 1028 + 0,3
So, 29.11. 10:50 1028 keine Meldung
So, 29.11. 10:40 1029 keine Meldung
So, 29.11. 10:30 1029 + 0,6
So, 29.11. 10:00 1028 + 0,4
Ortszeit Schneehöhe (cm)
So, 29.11. 7:00 0
So, 29.11. 1:00 0
Sa, 28.11. 19:00 0
Sa, 28.11. 13:00 0
Sa, 28.11. 7:00 0
Sa, 28.11. 1:00 0
Fr, 27.11. 19:00 0
Fr, 27.11. 13:00 0
Ortszeit Schneehöhe (cm)
So, 29.11. 11:30 0
So, 29.11. 11:20 0
So, 29.11. 11:10 0
So, 29.11. 11:00 0
So, 29.11. 10:50 0
So, 29.11. 10:40 0
So, 29.11. 10:30 0
So, 29.11. 10:00 0
Link zu dieser Seite / Seite empfehlen

Das Wetter in ...